[Iaude] MPEC N125: 2024 NY2 [a=1.54,e=0.32,i=9.7,H=24.5]
    mpec at cfa.harvard.edu 
    mpec at cfa.harvard.edu
       
    Wed Jul 10 09:59:00 EDT 2024
    
    
  
M.P.E.C. 2024-N125                                Issued 2024 July 10, 13:57 UT
     The Minor Planet Electronic Circulars contain information on unusual
         minor planets, routine data on comets and natural satellites,
         and occasional editorial announcements.  They are published
    on behalf of Division F of the International Astronomical Union by the
          Minor Planet Center, Smithsonian Astrophysical Observatory,
                          Cambridge, MA 02138, U.S.A.
			  
             Prepared using the Tamkin Foundation Computer Network
                              MPC at CFA.HARVARD.EDU
            URL https://www.minorplanetcenter.net/    ISSN 1523-6714
                                    2024 NY2                                    
Observations:
     K24N02Y  C2024 06 29.54370121 29 25.327-30 30 00.50         19.43GVEN125F51
     K24N02Y  C2024 07 02.57929321 53 06.912-16 30 00.71         19.41GVEN125F51
     K24N02Y  C2024 07 02.58905021 53 10.366-16 27 12.46         19.38GVEN125F51
     K24N02Y* C2024 07 09.49217222 33 46.057+13 29 45.39         20.33wXEN125F52
     K24N02Y  C2024 07 09.50338122 33 48.572+13 32 08.53         20.31wXEN125F52
     K24N02Y  C2024 07 09.51468122 33 51.108+13 34 31.99         20.65wXEN125F52
     K24N02Y  C2024 07 09.52596522 33 53.624+13 36 55.75         20.19wXEN125F52
     K24N02Y  C2024 07 09.57958422 34 05.299+13 48 12.90         19.97GVEN125F52
     K24N02Y  C2024 07 09.58023822 34 05.443+13 48 21.26         19.92GVEN125F52
     K24N02Y KC2024 07 09.61531022 34 18.199+13 58 12.94         20.1 GVEN125474
     K24N02Y KC2024 07 09.61932522 34 19.145+13 59 04.16         20.2 GVEN125474
     K24N02Y KC2024 07 09.62314022 34 19.985+13 59 51.25         20.2 GVEN125474
     K24N02Y bC2024 07 09.92717622 35 49.12 +14 58 41.5          20.2 GVEN125L01
     K24N02Y bC2024 07 09.93008322 35 49.95 +14 59 16.3          20.5 GVEN125L01
     K24N02Y bC2024 07 09.93181322 35 50.41 +14 59 37.4          20.3 GVEN125L01
     K24N02Y bC2024 07 09.93304722 35 50.64 +14 59 52.5          20.3 GVEN125L01
     K24N02Y KB2024 07 09.97950 22 36 00.77 +15 09 27.9          20.3 VZEN125M45
     K24N02Y KB2024 07 09.98874 22 36 02.92 +15 11 21.4          20.5 VZEN125M45
     K24N02Y KB2024 07 10.03789722 36 16.33 +15 21 17.5                VEN125204
     K24N02Y KB2024 07 10.05302522 36 19.466+15 24 41.98               XEN125L34
     K24N02Y KB2024 07 10.05367622 36 19.96 +15 24 29.8                VEN125204
     K24N02Y KB2024 07 10.06945322 36 23.56 +15 27 41.1          20.3 GVEN125204
     K24N02Y KB2024 07 10.08139422 36 25.740+15 30 24.80         20.6 GXEN125L34
     K24N02Y 7C2024 07 10.12879622 36 38.552+15 39 57.89         19.7 GVEN125Z84
     K24N02Y 7C2024 07 10.13381922 36 39.646+15 40 58.48         20.0 GVEN125Z84
     K24N02Y 7C2024 07 10.13669022 36 40.280+15 41 32.63         19.9 GVEN125Z84
Observer details:
204 Schiaparelli Observatory.  Observer L. Buzzi.  0.84-m f/3.5 reflector +
    CMO.
474 Mount John Observatory, Lake Tekapo.  Observers A. C. Gilmore, P. M.
    Kilmartin.  Measurer P. M. Kilmartin.  0.6-m f/6.3 Reflector + CCD.
F51 Pan-STARRS 1, Haleakala.  Observers J. Herman, T. Lowe, P. Minguez, A.
    Schultz, I. Smith.  Measurers K. Chambers, T. de Boer, J. Fairlamb, H.
    Gao, M. Huber, C.-C. Lin, E. Magnier, Y. Ramanjooloo, R. Wainscoat, R.
    Weryk.  1.8-m Ritchey-Chretien + CCD.
F52 Pan-STARRS 2, Haleakala.  Observers J. Herman, T. Lowe, P. Minguez, A.
    Schultz, I. Smith.  Measurers K. Chambers, T. de Boer, J. Fairlamb, H.
    Gao, M. Huber, C.-C. Lin, E. Magnier, Y. Ramanjooloo, R. Wainscoat, R.
    Weryk.  1.8-m Ritchey-Chretien + CCD.
L01 Visnjan Observatory, Tican.  Observer K. Korlevic.  1.0-m f/2.9 reflector
    + CCD.
L34 Galhassin Robotic Telescope, Isnello.  Observer A. Nastasi.  0.40-m f/3.8
    400mm Reflector + CMO.
M45 Starhopper Observatory, Sfantu Gheorghe.  Observer F. Ursache.  0.41-m
    f/7.5 reflector + CMO.
Z84 Calar Alto-Schmidt.  Observers R. Kresken, F. Ocana, M. Micheli, L.
    Conversi.  Measurers F. Ocana, M. Micheli.  0.8-m f/3 Schmidt + CCD.
Orbital elements:
2024 NY2                                                 Earth MOID = 0.0320 AU
Epoch 2024 Mar. 31.0 TT = JDT 2460400.5                 MPC                     
M 304.46689              (2000.0)            P               Q                  
n   0.51641332     Peri.   13.85995     +0.45656992     +0.87456392             
a   1.5386426      Node   283.51944     -0.83144518     +0.35409096             
e   0.3222696      Incl.    9.67162     -0.31661147     +0.33129677             
P   1.91           H   24.51          G   0.15           U   7                  
Residuals in seconds of arc
240629 F51  0.0   0.0     240709 474  0.1+  0.4-    240710 204  0.1+  0.0
240702 F51  0.1+  0.1+    240709 474  0.2+  0.4+    240710 L34  0.1+  0.1+
240702 F51  0.0   0.1-    240709 474  0.5-  0.5-    240710 204  0.1+  0.3+
240709 F52  0.2-  0.0     240709 L01 (0.9-  1.3+)   240710 204  0.1+  0.0
240709 F52  0.4-  0.1+    240709 L01  0.4+  0.1+    240710 L34  0.4+  0.8-
240709 F52  0.2-  0.3-    240709 L01  0.7+  0.2-    240710 Z84  0.1-  0.1+
240709 F52  0.1+  0.0     240709 L01  0.4-  0.3-    240710 Z84  0.1-  0.2+
240709 F52  0.0   0.0     240709 M45  0.2-  0.2-    240710 Z84  0.0   0.1-
240709 F52  0.0   0.1+    240709 M45  0.3-  0.2+
Ephemeris:
2024 NY2                 a,e,i = 1.54, 0.32, 10                  q = 1.0428
Date    TT    R. A. (2000) Decl.     Delta      r    Elong.  Phase     V
2024 06 10    18 05 23.1 -65 34 13   0.1105  1.0982   136.6    39.4    21.5
...
2024 06 25    20 46 27.9 -47 02 53   0.05812 1.0627   141.8    36.3    19.9
...
2024 07 03    21 56 06.3 -14 27 34   0.04727 1.0507   135.0    43.1    19.7
...
2024 07 09    22 31 19.4 +11 44 08   0.05373 1.0452   120.7    56.7    20.3
2024 07 10    22 36 02.1 +15 14 51   0.05581 1.0445   118.6    58.7    20.4
2024 07 11    22 40 28.0 +18 28 36   0.05811 1.0440   116.7    60.5    20.6
...
2024 07 17    23 02 05.3 +32 44 34   0.07495 1.0426   108.6    67.5    21.4
...
2024 07 25    23 21 07.9 +42 59 47   0.1012  1.0457   104.5    70.1    22.1
...
2024 08 09    23 37 34.1 +51 06 08   0.1510  1.0660   106.2    65.9    22.9
A. U. Tomatic                (C) Copyright 2024 MPC           M.P.E.C. 2024-N125
    
    
More information about the Iaude
mailing list